Kuchera_Ratio
0.0 0.0 0.0 0.0 0.0 0.0 0.0 0.0 0.5 0.0 0.0 0.0 0.0 0.0 0.0 0.0 0.0 0.0 0.0 0.0 0.0 0.0 0.0 0.0 0.0 0.0 0.0 0.0 0.0 0.0 0.0 0.0 0.0 0.0 0.0 0.0 0.0 0.0 0.0 0.0 0.0 0.0 0.0 0.0
0.0 0.0 0.0 0.0 0.0 0.0 0.0 0.0 0.0 0.0 0.0 0.0 0.0 0.0 0.0 0.0 0.0 0.0 0.0 0.0 0.0 0.0 0.0 0.0 0.0 0.0 0.0 0.0 0.0 0.0 0.0 0.0 0.0 0.0 0.0 0.0 0.0 0.0 0.0 0.0 0.0 0.0 0.0 0.8
0.5 0.0 0.0 1.7 0.0 0.0 0.0 0.0 0.0 0.0 0.0 0.0 0.0 0.0 0.0 0.0 0.0 0.0 0.0 0.0 0.0 0.0 0.0 0.0 0.0 0.0 0.0 0.0 0.0 0.0 0.0 0.0 0.0 0.0 0.0 0.0 0.0 0.0 1.1 0.3 0.0 1.4 2.9 4.5
1.6 0.2 10.1 0.0 0.0 0.0 0.0 0.0 0.0 0.0 0.0 0.0 0.0 0.0 0.0 0.0 0.0 0.0 0.0 0.0 0.0 0.0 0.0 0.0 0.0 0.0 0.0 0.0 0.0 0.0 0.0 0.0 0.0 0.0 0.0 0.0 0.4 1.9 2.7 3.3 2.3 4.6 6.6 7.4
2.9 4.9 2.5 0.0 0.0 0.0 0.0 0.0 0.0 0.0 0.0 0.0 0.0 0.0 0.0 0.0 0.0 0.0 0.0 0.0 0.0 0.0 0.0 0.0 0.0 0.0 0.0 0.0 0.0 0.0 0.0 0.0 0.0 0.0 0.0 0.0 0.5 1.5 2.2 4.0 4.8 6.8 8.1 9.8
4.4 5.8 11.3 0.0 0.0 0.0 0.0 1.3 0.0 0.0 0.0 0.0 0.0 2.6 0.3 0.0 0.0 0.0 0.0 0.0 0.0 0.0 0.0 0.0 0.0 0.0 0.0 0.0 0.0 0.0 0.0 0.0 0.0 0.0 0.0 0.1 0.7 1.7 2.3 3.6 7.1 7.9 10.1 12.0
5.9 7.3 3.1 0.0 0.0 0.0 5.5 0.0 0.0 0.0 0.0 0.0 0.0 0.0 0.0 0.0 0.0 0.0 0.0 0.0 0.0 0.0 0.0 0.0 0.0 0.0 0.0 0.0 0.0 0.0 0.0 0.0 0.0 0.0 0.0 0.0 0.5 2.7 4.3 7.5 8.8 10.6 12.0 13.0
7.6 9.2 7.6 0.0 0.0 0.0 0.0 0.0 0.0 0.0 0.0 0.0 0.0 0.0 0.0 0.0 0.0 0.0 0.0 0.0 0.0 0.0 0.0 0.0 0.0 0.0 0.0 0.0 0.0 0.0 0.0 0.0 1.0 1.5 1.8 1.7 3.6 5.9 7.2 8.7 10.9 12.2 12.9 13.7
0.0 0.0 0.0 0.0 0.0 0.0 0.0 0.0 0.0 0.0 0.0 0.0 0.0 0.0 0.0 0.0 0.0 0.0 0.0 0.0 0.0 0.0 0.0 0.0 0.0 0.0 0.0 0.0 0.0 0.0 0.1 2.2 3.4 3.6 4.2 4.4 5.0 7.7 10.1 10.5 11.5 12.9 13.6 14.7
0.0 0.0 0.0 0.0 0.0 0.0 0.0 0.0 0.0 0.0 0.0 0.0 0.0 0.0 0.0 0.0 0.0 0.0 0.0 0.0 0.0 0.0 0.0 0.0 0.0 0.0 0.0 0.0 0.0 0.5 2.2 4.3 5.4 6.7 6.6 6.3 7.7 9.1 10.2 11.4 12.4 13.1 14.1 14.8
0.0 0.0 0.0 0.0 0.0 0.0 0.0 0.0 0.0 0.0 0.0 0.0 0.0 0.0 0.0 0.0 0.0 0.0 0.0 0.0 0.0 0.0 0.6 0.4 0.0 0.1 0.6 2.1 1.2 2.8 4.4 6.0 7.0 7.7 8.3 8.6 10.2 10.6 10.8 11.5 12.1 12.7 13.2 14.3
0.0 0.0 0.0 0.0 0.0 0.0 0.0 0.0 0.0 0.0 0.0 0.0 0.0 0.0 0.0 0.0 0.0 0.0 0.0 0.0 0.3 0.4 1.1 1.3 2.5 2.9 3.5 4.1 3.9 5.1 7.9 7.9 7.5 7.9 8.9 9.6 10.7 11.3 8.1 9.3 9.1 7.7 9.9 14.0
0.0 0.0 0.0 0.0 0.0 0.0 0.0 0.0 0.0 0.0 0.0 0.0 0.0 0.0 0.0 0.0 0.0 0.0 0.1 0.9 1.9 2.3 2.1 3.6 4.3 5.4 4.9 5.3 5.0 7.1 9.5 9.1 8.6 8.7 9.5 10.3 11.3 12.1 13.4 11.5 8.7 8.3 7.7 9.5
0.0 0.0 0.0 0.0 0.0 0.0 0.0 0.0 0.0 0.0 0.0 0.0 0.0 0.0 0.0 0.0 0.0 0.9 1.9 2.4 2.4 3.4 4.5 5.1 6.4 7.2 5.5 2.5 5.5 7.2 8.5 9.5 9.3 9.3 9.8 10.7 11.6 11.4 11.5 13.5 14.4 13.0 12.7 10.3
0.0 0.0 0.0 0.0 0.0 0.0 0.0 0.0 0.0 0.0 0.0 0.0 0.0 0.0 0.0 0.9 2.3 2.7 3.0 3.5 5.0 6.5 6.9 6.3 7.1 8.1 3.7 4.9 6.7 7.5 7.9 9.1 8.1 10.2 9.7 10.3 11.6 11.3 12.3 12.4 12.8 13.2 13.2 14.0
0.0 0.0 0.0 0.0 0.0 0.0 0.0 0.0 0.0 0.0 0.0 0.0 0.0 0.1 0.6 1.9 3.5 4.4 5.5 6.2 10.1 9.9 7.5 7.5 8.1 8.8 5.1 4.3 6.1 7.7 7.5 8.5 8.4 10.2 10.1 11.1 11.9 12.2 12.6 13.0 13.3 13.4 13.7 13.9
0.0 0.0 0.0 0.0 0.0 0.0 0.0 0.0 0.0 0.0 0.0 0.3 1.1 1.3 2.3 4.0 5.6 6.3 8.3 8.3 8.7 8.7 7.9 6.7 7.8 4.3 5.3 4.9 6.9 7.7 9.6 9.8 10.3 11.2 11.8 12.1 12.5 12.2 12.7 13.2 13.4 13.7 13.8 13.8
0.0 0.0 0.0 0.0 0.0 0.3 0.1 0.0 0.0 0.0 0.7 0.6 1.7 2.7 4.1 5.8 8.6 9.2 9.5 8.9 8.5 7.6 6.2 5.5 5.3 6.7 6.5 5.7 7.1 8.7 9.7 10.1 10.7 11.4 11.6 12.2 12.4 12.1 12.5 12.8 13.1 13.9 13.5 13.8
0.0 0.0 0.0 0.0 0.0 0.0 0.0 0.0 0.1 0.5 1.0 1.7 3.4 4.0 5.6 6.6 8.1 8.2 8.5 9.9 9.4 9.8 7.2 6.3 8.1 7.9 6.9 6.7 7.9 10.1 10.6 10.6 10.5 11.2 11.5 11.4 12.4 12.6 13.4 13.5 13.2 13.2 13.3 13.6
0.0 0.0 0.0 0.0 0.0 0.0 0.0 0.6 1.5 2.6 2.4 3.5 4.3 5.8 6.8 6.1 6.9 7.5 8.0 10.1 7.1 5.7 5.8 9.3 8.1 7.3 8.7 8.7 8.7 10.9 10.8 10.6 10.9 11.6 12.0 12.0 12.9 13.5 13.3 13.3 13.3 13.0 13.3 13.7
0.4 0.0 0.0 0.0 0.0 0.5 1.2 2.1 3.1 3.1 2.0 3.4 5.9 6.4 6.5 5.9 6.9 8.1 9.9 11.2 6.9 6.2 6.7 8.1 9.4 7.1 8.5 7.1 9.1 11.3 11.7 11.6 11.9 12.2 12.5 12.9 12.7 13.3 13.6 12.9 13.2 13.1 13.4 13.7
0.7 0.5 0.4 1.1 1.4 2.1 1.3 1.6 2.4 2.4 3.2 4.4 5.5 5.4 5.9 5.9 6.5 7.1 8.8 10.4 7.3 6.8 7.3 7.8 7.7 6.9 7.5 7.5 8.9 10.1 11.8 12.4 12.7 13.0 13.3 13.1 13.6 13.3 13.5 13.5 13.2 13.5 13.3 13.5
0.6 1.4 1.7 1.4 2.1 2.6 1.9 2.0 2.4 3.2 3.8 3.7 4.4 4.2 5.8 7.3 8.4 11.4 11.9 7.2 7.3 7.6 7.3 7.7 7.3 6.9 7.1 7.5 7.7 9.3 10.5 11.6 11.7 12.6 13.1 13.4 13.2 12.5 13.1 13.1 12.5 12.7 12.7 13.0
2.0 1.7 2.3 1.9 2.4 3.2 4.9 1.5 1.9 1.9 2.1 2.2 2.2 2.3 6.2 7.7 9.1 8.0 7.7 8.1 8.1 7.5 6.9 6.5 6.7 7.3 7.3 7.7 8.7 8.5 10.3 11.5 11.9 12.3 13.0 13.4 13.8 13.5 13.1 13.0 13.1 12.8 12.9 12.9
2.2 2.7 2.4 2.4 4.1 3.5 2.6 1.6 3.0 2.2 3.0 4.6 4.8 4.6 7.0 8.1 10.7 8.4 7.6 7.7 7.9 8.0 8.7 6.3 7.1 7.5 7.3 7.5 8.1 9.9 10.9 11.1 11.1 11.7 12.1 12.6 12.5 12.6 12.6 12.7 12.8 12.6 12.9 13.2
2.2 2.1 1.8 1.9 2.5 2.0 1.6 2.1 4.7 4.5 7.0 8.0 7.9 5.6 6.6 7.1 7.1 7.7 7.1 8.0 8.3 8.7 8.1 6.9 6.9 7.1 7.3 7.7 7.7 7.5 8.5 10.1 10.5 10.9 11.1 10.9 11.3 11.7 11.7 12.2 12.3 12.3 12.4 12.6
1.3 1.3 1.7 2.0 1.5 1.8 2.3 4.0 6.4 7.9 6.5 7.2 8.1 8.8 8.9 7.9 8.4 8.7 9.3 10.5 10.7 11.9 10.7 13.1 12.2 10.5 9.5 8.5 8.5 8.5 8.3 7.5 7.9 8.9 9.3 9.9 10.1 10.7 11.5 12.5 12.9 12.9 12.7 12.9